PBO Station Position Time Series. Reference Frame : NAM14
Format Version,1.1.0
4-character ID,USN7
Station name,U.S._Naval_Obs7
Begin Date, 2014-12-10
End Date, 2019-10-07
Release Date, 2019-10-08
Reference position, 38.9205659240 North Latitude, -77.0662758171 East Longitude, 58.91595 meters elevation,
Date, North (mm), East (mm), Vertical (mm), North Std. Deviation (mm), East Std. Deviation (mm),              Vertical Std. Deviation (mm), Quality,
2014-12-10,0.00, 0.00, 0.00, 1.91, 1.60, 7.22, repro,
2014-12-11,-2.29, -0.75, 7.30, 1.98, 1.63, 7.50, repro,
2014-12-12,-1.05, -0.91, 9.75, 1.92, 1.60, 7.24, repro,
2014-12-13,-1.45, -1.20, 5.83, 1.92, 1.59, 7.20, repro,
2014-12-14,-2.03, -0.94, 6.90, 1.92, 1.59, 7.21, repro,
2014-12-15,-0.55, 0.88, 7.42, 1.92, 1.59, 7.19, repro,
2014-12-16,-2.14, -0.36, 3.38, 1.90, 1.59, 7.20, repro,
2014-12-17,-1.63, 1.16, 3.24, 1.92, 1.60, 7.25, repro,
2014-12-18,-1.95, -1.59, 0.60, 1.92, 1.59, 7.23, repro,
2014-12-19,-1.92, -1.39, 7.34, 1.95, 1.60, 7.35, repro,
2014-12-20,-0.90, -1.72, 0.17, 1.91, 1.57, 7.18, repro,
2014-12-21,-0.18, -1.37, -2.87, 1.90, 1.57, 7.15, repro,
2014-12-22,-2.32, -0.76, -0.99, 1.90, 1.57, 7.15, repro,
2014-12-23,-1.79, -2.02, 3.44, 1.90, 1.57, 7.16, repro,
2014-12-24,-1.79, 1.27, 8.83, 1.91, 1.58, 7.28, repro,
2014-12-25,-0.80, -1.58, 14.33, 1.95, 1.61, 7.32, repro,
2014-12-26,-1.33, -0.85, 5.98, 1.89, 1.57, 7.16, repro,
2014-12-27,-0.91, -0.06, 5.91, 1.90, 1.58, 7.20, repro,
2014-12-28,-1.28, -0.07, 10.76, 1.90, 1.57, 7.17, repro,
2014-12-29,-0.98, -2.30, 1.43, 1.90, 1.57, 7.21, repro,
2014-12-30,-2.00, -1.49, 3.84, 1.92, 1.58, 7.25, repro,
2014-12-31,-2.12, -0.60, 5.75, 1.88, 1.56, 7.16, repro,
2015-01-01,-2.18, -1.22, 5.90, 1.89, 1.55, 7.11, repro,
2015-01-02,-3.51, -1.15, 4.79, 1.91, 1.56, 7.19, repro,
2015-01-03,-2.03, -1.26, 1.80, 1.90, 1.58, 7.21, repro,
2015-01-04,-1.95, 0.42, 9.46, 1.95, 1.62, 7.38, repro,
2015-01-05,1.37, -0.05, -5.10, 1.99, 1.65, 7.51, repro,
2015-01-06,-2.12, -1.57, 2.84, 1.93, 1.61, 7.31, repro,
2015-01-07,-0.61, -1.69, -1.62, 1.94, 1.60, 7.30, repro,
2015-01-08,-3.01, -2.63, 0.82, 1.92, 1.60, 7.22, repro,
2015-01-09,-2.66, -0.09, 4.59, 1.97, 1.63, 7.40, repro,
2015-01-10,-1.14, -1.17, 0.12, 1.93, 1.61, 7.29, repro,
2015-01-11,-1.78, -1.42, -2.10, 1.94, 1.61, 7.29, repro,
2015-01-12,-1.03, -0.83, -1.75, 1.94, 1.61, 7.30, repro,
2015-01-13,-0.31, -1.51, -1.19, 1.93, 1.61, 7.28, repro,
2015-01-14,-2.31, -1.02, -2.28, 1.94, 1.60, 7.25, repro,
2015-01-15,-1.07, 0.44, 0.77, 1.93, 1.60, 7.29, repro,
2015-01-16,0.30, 0.20, 0.90, 1.98, 1.65, 7.49, repro,
2015-01-17,-0.01, -1.15, -7.62, 1.99, 1.67, 7.56, repro,
2015-01-18,-1.08, 0.56, 7.43, 1.98, 1.66, 7.49, repro,
2015-01-19,-1.40, -0.20, 5.27, 1.92, 1.59, 7.23, repro,
2015-01-20,-0.29, 0.33, 0.32, 1.92, 1.59, 7.24, repro,
2015-01-21,0.15, -0.46, -2.36, 1.95, 1.61, 7.37, repro,
2015-01-22,0.29, -0.20, -14.11, 1.92, 1.60, 7.24, repro,
2015-01-23,-1.03, -0.05, 3.02, 2.06, 1.66, 7.59, repro,
2015-01-24,-1.75, 2.31, 4.06, 2.03, 1.69, 7.48, repro,
2015-01-25,-0.13, 1.15, 4.44, 1.94, 1.60, 7.28, repro,
2015-01-26,0.37, 0.80, 0.16, 1.93, 1.61, 7.34, repro,
2015-01-27,1.19, 0.80, 0.09, 1.94, 1.61, 7.36, repro,
2015-01-28,-0.20, -0.19, -0.36, 1.97, 1.65, 7.46, repro,
2015-01-29,-0.95, -0.27, -3.30, 1.95, 1.63, 7.40, repro,
2015-01-30,-1.14, 0.38, -3.89, 1.93, 1.60, 7.32, repro,
2015-01-31,-1.51, -0.65, -7.64, 1.92, 1.60, 7.29, repro,
2015-02-01,-1.66, -1.52, -2.58, 1.95, 1.61, 7.36, repro,
2015-02-02,0.72, -0.59, -1.15, 1.97, 1.64, 7.49, repro,
2015-02-03,-0.52, -1.16, -1.40, 1.93, 1.62, 7.34, repro,
2015-02-04,-0.58, 0.48, -1.50, 1.96, 1.65, 7.42, repro,
2015-02-05,0.98, -0.36, -3.24, 1.97, 1.65, 7.47, repro,
2015-02-06,-1.41, -1.72, -3.36, 2.05, 1.68, 7.64, repro,
2015-02-07,-1.41, 0.17, -6.30, 2.07, 1.72, 7.68, repro,
2015-02-08,0.56, 0.27, 3.05, 1.97, 1.65, 7.45, repro,
2015-02-09,0.48, 1.69, 5.08, 1.93, 1.62, 7.30, repro,
2015-02-10,1.36, 0.20, -4.66, 1.95, 1.66, 7.44, repro,
2015-02-11,-1.46, 0.42, -1.87, 2.10, 1.74, 7.74, repro,
2015-02-12,-0.78, 0.24, -3.10, 2.02, 1.68, 7.62, repro,
2015-02-13,-1.37, -1.95, 1.16, 1.93, 1.61, 7.27, repro,
2015-02-14,-1.69, 0.11, 0.22, 2.07, 1.72, 7.63, repro,
2015-02-15,-1.95, -1.05, -1.28, 1.95, 1.64, 7.35, repro,
2015-02-16,-1.81, -1.47, -6.11, 1.92, 1.61, 7.29, repro,
2015-02-17,-1.57, -0.59, -25.40, 2.08, 1.72, 7.71, repro,
2015-02-18,-1.10, 0.31, -12.06, 1.96, 1.64, 7.38, repro,
2015-02-19,-1.99, 0.33, -4.32, 2.06, 1.72, 7.62, repro,
2015-02-20,-1.88, -1.11, 0.67, 2.06, 1.71, 7.66, repro,
2015-02-21,-1.91, 0.08, -3.09, 1.96, 1.65, 7.41, repro,
2015-02-22,-1.08, 1.78, -21.48, 1.97, 1.66, 7.48, repro,
2015-02-23,-1.66, 0.17, -3.59, 2.11, 1.75, 7.85, repro,
2015-02-24,-2.70, 0.01, -2.87, 1.96, 1.64, 7.40, repro,
2015-02-25,-2.61, -0.68, 8.39, 1.92, 1.62, 7.29, repro,
2015-02-26,-1.30, -0.28, 0.36, 1.92, 1.62, 7.32, repro,
2015-02-27,-2.16, -0.87, -2.05, 2.06, 1.75, 7.81, repro,
2015-02-28,-1.39, -0.93, -5.44, 1.92, 1.61, 7.27, repro,
2015-03-01,-2.32, -0.75, -12.19, 1.91, 1.60, 7.21, repro,
2015-03-02,-4.25, 0.72, -2.26, 1.93, 1.61, 7.32, repro,
2015-03-03,-1.71, -0.87, 0.74, 1.91, 1.61, 7.26, repro,
2015-03-04,-1.26, 1.64, -4.35, 1.94, 1.62, 7.37, repro,
2015-03-05,-0.99, -1.81, 2.46, 1.96, 1.67, 7.47, repro,
2015-03-06,-1.86, -1.51, -3.23, 1.93, 1.66, 7.35, repro,
2015-03-07,-1.28, -0.43, -1.70, 1.92, 1.60, 7.25, repro,
2015-03-08,-1.23, 0.63, 6.19, 1.92, 1.61, 7.26, repro,
2015-03-09,-0.42, 1.35, 2.65, 1.94, 1.63, 7.44, repro,
2015-03-10,-1.98, 0.02, 2.49, 1.93, 1.63, 7.38, repro,
2015-03-11,-1.56, 0.74, 2.61, 1.94, 1.63, 7.38, repro,
2015-03-12,0.65, -0.08, -0.75, 1.96, 1.68, 7.44, repro,
2015-03-13,-1.56, -0.23, -3.84, 1.93, 1.62, 7.28, repro,
2015-03-14,-0.28, 0.55, -2.74, 1.95, 1.63, 7.41, repro,
2015-03-15,0.30, -0.06, 5.02, 1.95, 1.62, 7.37, repro,
2015-03-16,-1.78, 0.78, 6.43, 1.95, 1.65, 7.43, repro,
2015-03-17,-1.28, 0.84, 15.74, 2.02, 1.70, 7.59, repro,
2015-03-18,-1.99, -1.89, 0.41, 1.99, 1.65, 7.45, repro,
2015-03-19,-1.53, 0.41, 0.71, 2.04, 1.68, 7.66, repro,
2015-03-20,1.43, 1.87, -11.05, 2.02, 1.68, 7.51, repro,
2015-03-21,-0.67, 1.22, -1.25, 2.00, 1.70, 7.59, repro,
2015-03-22,-1.10, 1.39, 1.61, 2.01, 1.68, 7.64, repro,
2015-03-23,-1.87, -0.47, 0.91, 1.97, 1.65, 7.43, repro,
2015-03-24,-0.52, 0.30, -3.60, 1.95, 1.64, 7.31, repro,
2015-03-25,-0.09, 0.24, -1.98, 1.95, 1.65, 7.39, repro,
2015-03-26,-1.89, 1.07, 5.69, 1.97, 1.65, 7.44, repro,
2015-03-27,-0.47, 0.47, 0.58, 2.02, 1.71, 7.77, repro,
2015-03-28,-1.72, -0.37, 1.81, 2.05, 1.72, 7.83, repro,
2015-03-29,-0.38, -1.00, -1.94, 2.11, 1.77, 7.99, repro,
2015-03-30,1.80, -0.11, 3.40, 2.00, 1.73, 7.66, repro,
2015-03-31,-1.47, 0.43, 8.28, 2.09, 1.76, 7.91, repro,
2015-04-01,0.34, -0.28, 2.74, 2.05, 1.74, 7.76, repro,
2015-04-02,-0.23, 0.21, 6.31, 2.09, 1.74, 7.76, repro,
2015-04-03,-1.09, 0.68, 3.16, 1.98, 1.67, 7.52, repro,
2015-04-04,0.33, 0.32, 2.03, 1.95, 1.65, 7.37, repro,
2015-04-05,-0.38, -0.40, 3.78, 1.99, 1.69, 7.44, repro,
2015-04-06,1.34, -0.49, 4.82, 1.93, 1.62, 7.26, repro,
2015-04-07,1.54, 0.52, 5.25, 1.95, 1.64, 7.33, repro,
2015-04-08,1.85, -0.28, -1.37, 1.93, 1.64, 7.28, repro,
2015-04-09,0.81, 0.53, 2.49, 2.09, 1.78, 7.92, repro,
2015-04-10,-1.16, 2.00, 7.19, 2.31, 1.96, 8.66, repro,
2015-04-11,0.90, 1.07, 5.08, 2.03, 1.74, 7.71, repro,
2015-04-12,1.18, 0.02, 3.82, 1.96, 1.64, 7.36, repro,
2015-04-13,-0.20, -0.35, 4.38, 1.94, 1.65, 7.34, repro,
2015-04-14,0.03, 0.62, 7.82, 1.92, 1.64, 7.29, repro,
2015-04-15,0.03, 0.17, -2.01, 1.96, 1.64, 7.43, repro,
2015-04-16,-0.34, 0.09, 1.94, 1.95, 1.63, 7.43, repro,
2015-04-17,2.00, 0.21, -0.25, 2.18, 1.82, 8.06, repro,
2015-04-18,1.33, 0.10, 3.19, 1.91, 1.62, 7.23, repro,
2015-04-19,0.96, 0.59, 4.15, 1.91, 1.61, 7.22, repro,
2015-04-20,0.87, 2.50, 11.04, 1.95, 1.66, 7.37, repro,
2015-04-21,0.92, 1.49, 12.48, 2.27, 2.03, 8.61, repro,
2015-04-22,0.10, 1.17, 5.70, 1.91, 1.62, 7.15, repro,
2015-04-23,1.01, -1.51, 4.26, 1.92, 1.64, 7.25, repro,
2015-04-24,0.30, -0.96, -2.03, 1.87, 1.60, 7.03, repro,
2015-04-25,-0.31, 0.05, 1.26, 1.86, 1.60, 7.00, repro,
2015-04-26,0.02, 0.68, 3.16, 1.86, 1.60, 7.00, repro,
2015-04-27,0.19, 0.10, 3.02, 1.86, 1.60, 6.99, repro,
2015-04-28,-0.11, -0.25, -0.75, 1.87, 1.60, 7.04, repro,
2015-04-29,3.03, 0.15, 0.03, 1.87, 1.60, 7.05, repro,
2015-04-30,1.12, -0.34, 2.15, 2.01, 1.72, 7.52, repro,
2015-05-01,-0.01, 0.47, 8.88, 1.98, 1.72, 7.52, repro,
2015-05-02,0.07, 0.34, 3.95, 1.88, 1.61, 7.07, repro,
2015-05-03,1.07, 0.61, 3.56, 1.89, 1.60, 7.10, repro,
2015-05-04,0.92, -0.10, 0.66, 1.87, 1.60, 7.07, repro,
2015-05-05,1.44, -0.19, 3.26, 1.87, 1.61, 7.09, repro,
2015-05-06,1.73, 0.39, 2.01, 1.94, 1.65, 7.23, repro,
2015-05-07,0.28, -0.28, 1.83, 1.89, 1.61, 7.14, repro,
2015-05-08,0.99, -0.63, 0.99, 1.90, 1.61, 7.19, repro,
2015-05-09,3.13, 0.25, -0.84, 1.89, 1.62, 7.22, repro,
2015-05-10,0.82, -0.53, -2.72, 1.93, 1.64, 7.22, repro,
2015-05-11,2.47, -0.19, 4.43, 1.88, 1.61, 7.16, repro,
2015-05-12,0.08, -1.37, -4.50, 2.00, 1.76, 7.64, repro,
2015-05-13,2.64, -1.82, 5.07, 1.92, 1.67, 7.37, repro,
2015-05-14,0.34, 0.18, -1.57, 2.65, 2.18, 9.53, repro,
2015-05-15,0.62, 0.41, -1.29, 2.23, 2.00, 8.95, repro,
2015-05-16,2.15, -0.49, 1.37, 1.96, 1.68, 7.44, repro,
2015-05-17,3.58, -1.02, 3.84, 1.89, 1.61, 7.15, repro,
2015-05-18,1.73, -0.98, 4.46, 2.06, 1.71, 7.65, repro,
2015-05-19,1.36, -0.67, -2.30, 2.06, 1.83, 7.91, repro,
2015-05-20,1.48, -0.44, 0.91, 1.89, 1.61, 7.18, repro,
2015-05-21,0.71, -0.54, 2.64, 1.86, 1.59, 7.06, repro,
2015-05-22,0.76, 0.09, -1.79, 1.87, 1.59, 7.03, repro,
2015-05-23,1.47, -1.73, -0.56, 1.89, 1.60, 7.10, repro,
2015-05-24,1.00, -0.99, 4.37, 1.90, 1.60, 7.15, repro,
2015-05-25,1.37, 1.02, 4.12, 1.88, 1.60, 7.13, repro,
2015-05-26,1.63, 0.80, 4.79, 1.88, 1.59, 7.12, repro,
2015-05-27,1.43, -0.30, 4.27, 2.07, 1.72, 7.74, repro,
2015-05-28,2.87, -1.93, -0.47, 2.09, 1.78, 7.84, repro,
2015-05-29,1.38, -1.05, 0.95, 2.07, 1.70, 7.51, repro,
2015-05-30,1.55, -1.84, 6.79, 1.91, 1.61, 7.20, repro,
2015-05-31,2.02, 0.16, 9.31, 1.91, 1.62, 7.21, repro,
2015-06-01,5.12, 0.18, 9.44, 2.19, 1.77, 8.17, repro,
2015-06-02,2.47, -1.25, 1.09, 1.94, 1.62, 7.25, repro,
2015-06-03,-0.15, -0.97, 2.95, 1.90, 1.59, 7.07, repro,
2015-06-04,0.60, 0.94, 1.88, 1.91, 1.60, 7.20, repro,
2015-06-05,0.06, 0.07, 4.10, 1.95, 1.63, 7.31, repro,
2015-06-06,1.57, 0.55, 3.78, 1.89, 1.59, 7.12, repro,
2015-06-07,0.74, 0.95, 8.61, 1.89, 1.60, 7.13, repro,
2015-06-08,2.99, 0.84, 14.61, 2.39, 2.12, 9.09, repro,
2015-06-09,-0.05, 3.49, 16.30, 1.99, 1.69, 7.49, repro,
2015-06-10,0.19, 0.32, 13.90, 1.90, 1.59, 7.12, repro,
2015-06-11,0.53, -1.39, 6.24, 1.97, 1.69, 7.47, repro,
2015-06-12,5.00, 0.29, 18.19, 1.90, 1.59, 7.15, repro,
2015-06-13,-0.15, 0.28, 17.61, 1.94, 1.64, 7.33, repro,
2015-06-14,3.71, -0.33, 8.25, 2.01, 1.64, 7.37, repro,
2015-06-15,2.00, -0.79, 8.16, 1.96, 1.61, 7.23, repro,
2015-06-16,1.61, 0.60, 5.28, 1.91, 1.60, 7.20, repro,
2015-06-17,1.60, -0.16, 9.19, 1.96, 1.63, 7.30, repro,
2015-06-18,2.22, -1.63, 9.49, 2.31, 1.86, 8.65, repro,
2015-06-19,-0.56, 1.89, 15.48, 2.00, 1.65, 7.54, repro,
2015-06-20,-0.13, 0.65, 9.47, 2.37, 2.20, 9.44, repro,
2015-06-21,1.75, -0.13, 24.41, 1.98, 1.65, 7.44, repro,
2015-06-22,1.87, 0.64, 11.74, 1.93, 1.58, 7.18, repro,
2015-06-23,0.48, 0.80, 12.37, 2.23, 2.03, 8.80, repro,
2015-06-24,-0.01, -1.81, 3.03, 1.98, 1.66, 7.49, repro,
2015-06-25,1.69, 1.53, 12.97, 1.96, 1.60, 7.20, repro,
2015-06-26,1.64, 0.97, 12.20, 2.08, 1.86, 8.02, repro,
2015-06-27,1.56, 0.83, 3.89, 1.96, 1.67, 7.39, repro,
2015-06-28,0.47, -0.98, 16.63, 1.95, 1.65, 7.31, repro,
2015-06-29,-0.46, 1.06, 11.00, 1.97, 1.63, 7.36, repro,
2015-06-30,0.83, -0.31, 9.22, 1.95, 1.63, 7.39, repro,
2015-07-01,1.25, 2.31, 9.98, 2.31, 2.00, 9.17, repro,
2015-07-02,2.28, 1.67, 13.48, 2.09, 1.83, 7.95, repro,
2015-07-03,1.76, 0.22, 2.96, 1.90, 1.58, 7.10, repro,
2015-07-04,1.50, 0.76, 9.46, 1.95, 1.61, 7.33, repro,
2015-07-05,1.66, 0.22, 6.91, 1.91, 1.58, 7.12, repro,
2015-07-06,1.42, 0.69, 7.86, 2.05, 1.79, 7.76, repro,
2015-07-07,2.96, 2.51, -8.39, 1.93, 1.59, 7.20, repro,
2015-07-08,2.11, 1.47, 5.36, 2.21, 1.93, 8.24, repro,
2015-07-09,1.87, -0.94, 10.23, 1.99, 1.65, 7.38, repro,
2015-07-10,2.29, 0.71, 9.12, 1.90, 1.57, 7.11, repro,
2015-07-11,2.39, 0.55, 9.47, 1.98, 1.64, 7.36, repro,
2015-07-12,1.83, -0.84, 1.18, 1.89, 1.58, 7.13, repro,
2015-07-13,1.10, 1.81, 6.79, 1.95, 1.64, 7.45, repro,
2015-07-14,2.60, 2.96, 11.46, 1.90, 1.59, 7.17, repro,
2015-07-15,-0.59, 1.09, 21.79, 1.96, 1.62, 7.32, repro,
2015-07-16,2.67, 0.58, 11.75, 2.00, 1.61, 7.22, repro,
2015-07-17,2.70, 1.58, 4.76, 1.95, 1.60, 7.23, repro,
2015-07-18,1.27, 0.69, 12.08, 1.94, 1.61, 7.27, repro,
2015-07-19,0.86, 0.91, 10.39, 2.00, 1.66, 7.60, repro,
2015-07-20,1.90, 0.52, 16.90, 2.04, 1.66, 7.59, repro,
2015-07-21,2.05, 1.73, 16.12, 1.98, 1.61, 7.34, repro,
2015-07-22,3.73, 1.08, 2.63, 1.95, 1.61, 7.26, repro,
2015-07-23,2.61, 1.46, 4.77, 1.95, 1.61, 7.29, repro,
2015-07-24,2.86, 2.45, 7.61, 1.95, 1.61, 7.28, repro,
2015-07-25,1.55, 3.01, 9.19, 2.08, 1.91, 8.18, repro,
2015-07-26,2.49, 1.22, 8.52, 1.94, 1.59, 7.19, repro,
2015-07-27,0.41, 3.09, 24.98, 2.21, 2.00, 8.84, repro,
2015-07-28,2.35, 2.50, 11.47, 2.29, 2.19, 9.55, repro,
2015-07-29,2.33, 1.33, 6.76, 1.99, 1.67, 7.40, repro,
2015-07-30,3.64, 1.04, 4.27, 2.07, 1.72, 7.95, repro,
2015-07-31,0.62, 0.11, 9.46, 1.95, 1.61, 7.27, repro,
2015-08-01,3.17, 0.58, 9.66, 2.01, 1.64, 7.43, repro,
2015-08-02,1.78, 1.08, 15.77, 1.99, 1.62, 7.36, repro,
2015-08-03,1.70, 1.92, 8.67, 1.95, 1.60, 7.22, repro,
2015-08-04,2.35, 1.72, 16.63, 2.13, 1.81, 8.06, repro,
2015-08-05,0.80, 2.67, 7.15, 1.96, 1.67, 7.39, repro,
2015-08-06,1.24, 1.62, 2.93, 1.95, 1.61, 7.22, repro,
2015-08-07,2.10, 2.07, 6.15, 1.93, 1.60, 7.18, repro,
2015-08-08,0.62, 1.27, 11.28, 1.98, 1.64, 7.32, repro,
2015-08-09,2.55, 3.29, 6.53, 2.12, 1.77, 7.73, repro,
2015-08-10,0.82, 1.61, 11.12, 1.95, 1.60, 7.17, repro,
2015-08-11,0.35, 1.77, 11.37, 2.00, 1.65, 7.42, repro,
2015-08-12,0.79, 1.22, 3.95, 1.93, 1.61, 7.21, repro,
2015-08-13,3.41, 2.10, 4.83, 1.94, 1.60, 7.16, repro,
2015-08-14,0.68, 1.76, 11.27, 1.90, 1.59, 7.01, repro,
2015-08-15,1.47, 1.37, 10.01, 1.91, 1.59, 7.04, repro,
2015-08-16,1.29, 2.66, 4.74, 1.96, 1.61, 7.17, repro,
2015-08-17,1.42, 3.43, 18.62, 1.89, 1.59, 7.01, repro,
2015-08-18,0.58, 0.62, 22.47, 1.99, 1.70, 7.62, repro,
2015-08-19,2.47, 2.25, 13.97, 1.90, 1.60, 7.07, repro,
2015-08-20,1.99, 1.74, 16.94, 1.94, 1.65, 7.29, repro,
2015-08-21,3.24, -0.50, 10.60, 1.95, 1.64, 7.26, repro,
2015-08-22,0.69, 0.61, 14.18, 1.91, 1.58, 7.03, repro,
2015-08-23,-0.07, 0.55, 10.00, 1.88, 1.58, 7.00, repro,
2015-08-24,0.24, 1.78, 10.75, 2.25, 2.09, 8.71, repro,
2015-08-25,-0.90, 1.30, 18.37, 2.17, 1.78, 7.92, repro,
2015-08-26,1.21, -0.02, 9.80, 1.90, 1.59, 7.03, repro,
2015-08-27,1.55, 0.20, 9.38, 1.93, 1.61, 7.12, repro,
2015-08-28,2.26, 1.77, 11.24, 1.89, 1.59, 7.01, repro,
2015-08-29,0.56, 1.40, 14.49, 1.87, 1.58, 6.98, repro,
2015-08-30,1.86, 2.35, 19.05, 1.89, 1.60, 7.07, repro,
2015-08-31,1.94, 1.41, 18.85, 1.90, 1.60, 7.06, repro,
2015-09-01,1.68, 0.87, 8.70, 1.93, 1.66, 7.24, repro,
2015-09-02,1.67, 1.74, 16.33, 1.92, 1.67, 7.31, repro,
2015-09-03,2.87, 1.16, 18.30, 2.15, 1.90, 8.14, repro,
2015-09-04,4.36, 1.75, 12.30, 1.89, 1.60, 7.05, repro,
2015-09-05,2.54, 1.28, 9.15, 1.94, 1.62, 7.16, repro,
2015-09-06,0.22, 0.82, 11.70, 1.91, 1.60, 7.09, repro,
2015-09-07,0.38, 1.85, 17.27, 1.91, 1.61, 7.09, repro,
2015-09-08,1.45, 2.38, 21.45, 1.91, 1.61, 7.11, repro,
2015-09-09,2.92, 0.62, 13.66, 1.91, 1.64, 7.18, repro,
2015-09-10,3.05, 1.66, 15.92, 1.90, 1.59, 7.02, repro,
2015-09-11,-0.39, 1.13, 16.13, 1.94, 1.62, 7.14, repro,
2015-09-12,-0.09, 1.24, 15.39, 1.96, 1.64, 7.33, repro,
2015-09-13,0.77, 1.82, 19.87, 1.90, 1.59, 7.06, repro,
2015-09-14,-0.29, 1.36, 7.90, 1.90, 1.59, 7.06, repro,
2015-09-15,1.30, 1.26, 5.71, 1.89, 1.59, 7.04, repro,
2015-09-16,1.18, 0.38, 10.22, 1.91, 1.59, 7.05, repro,
2015-09-17,0.99, 1.80, 9.52, 1.91, 1.60, 7.07, repro,
2015-09-18,1.15, 1.86, 11.07, 1.93, 1.59, 7.09, repro,
2015-09-19,2.56, 3.04, 12.63, 2.03, 1.73, 7.64, repro,
2015-09-20,2.40, 0.70, 14.17, 1.90, 1.60, 7.06, repro,
2015-09-21,0.87, 1.29, 13.02, 1.95, 1.61, 7.18, repro,
2015-09-22,1.64, 0.88, 3.75, 1.92, 1.60, 7.10, repro,
2015-09-23,0.98, 0.79, 8.76, 1.91, 1.60, 7.07, repro,
2015-09-24,1.99, 0.76, 5.67, 1.96, 1.64, 7.22, repro,
2015-09-25,1.98, 1.55, 8.83, 1.91, 1.60, 7.10, repro,
2015-09-26,2.22, 0.47, 1.82, 1.90, 1.60, 7.09, repro,
2015-09-27,-0.05, 1.22, 20.46, 1.93, 1.61, 7.14, repro,
2015-09-28,0.81, 2.28, 11.89, 1.96, 1.64, 7.34, repro,
2015-09-29,1.35, 1.36, 13.71, 1.97, 1.62, 7.31, repro,
2015-09-30,2.06, 1.01, 5.92, 2.10, 1.73, 7.96, repro,
2015-10-01,2.21, 0.96, 2.72, 1.98, 1.66, 7.44, repro,
2015-10-02,0.43, -0.02, -0.04, 2.02, 1.71, 7.65, repro,
2015-10-03,-0.51, 0.90, 0.62, 1.99, 1.63, 7.29, repro,
2015-10-04,-0.39, 1.53, 1.97, 1.93, 1.60, 7.11, repro,
2015-10-05,-0.47, 2.38, 1.13, 1.93, 1.60, 7.11, repro,
2015-10-06,1.20, 2.20, -1.94, 1.98, 1.64, 7.40, repro,
2015-10-07,0.85, 2.21, 0.10, 1.92, 1.60, 7.09, repro,
2015-10-08,1.63, 1.79, -0.76, 1.92, 1.60, 7.11, repro,
2015-10-09,0.60, 1.03, 14.77, 2.06, 1.76, 7.71, repro,
2015-10-10,2.03, 1.09, 1.05, 1.92, 1.60, 7.10, repro,
2015-10-11,0.89, 1.09, 5.43, 1.95, 1.65, 7.20, repro,
2015-10-12,1.74, 0.68, 6.05, 1.94, 1.64, 7.20, repro,
2015-10-13,1.21, 4.15, 9.28, 1.94, 1.61, 7.22, repro,
2015-10-14,-0.32, 1.78, 12.61, 1.97, 1.64, 7.26, repro,
2015-10-15,0.19, 1.20, 6.45, 1.94, 1.63, 7.15, repro,
2015-10-16,1.05, 0.98, 0.93, 1.92, 1.59, 7.05, repro,
2015-10-17,-0.98, 0.86, 3.06, 1.91, 1.60, 7.09, repro,
2015-10-18,0.66, -0.71, -1.96, 1.91, 1.59, 7.07, repro,
2015-10-19,0.01, 0.46, 0.03, 1.93, 1.62, 7.18, repro,
2015-10-20,-0.01, 0.83, 2.07, 1.97, 1.62, 7.20, repro,
2015-10-21,0.36, 1.04, 2.45, 1.93, 1.59, 7.08, repro,
2015-10-22,1.33, 0.01, 1.15, 1.92, 1.59, 7.06, repro,
2015-10-23,0.92, 0.60, 3.36, 1.93, 1.60, 7.11, repro,
2015-10-24,-0.05, 0.70, 4.22, 1.92, 1.60, 7.14, repro,
2015-10-25,1.79, 1.38, 4.53, 1.96, 1.63, 7.27, repro,
2015-10-26,-0.05, 0.40, -1.52, 1.93, 1.59, 7.07, repro,
2015-10-27,1.05, -0.15, -5.45, 1.93, 1.60, 7.09, repro,
2015-10-28,2.09, 1.37, 2.46, 2.02, 1.63, 7.48, repro,
2015-10-29,1.41, 2.29, 12.89, 2.12, 1.75, 7.84, repro,
2015-10-30,0.56, -0.51, 11.62, 1.91, 1.59, 7.11, repro,
2015-10-31,1.01, 0.34, 6.12, 1.93, 1.58, 7.08, repro,
2015-11-01,1.18, 0.62, 9.38, 1.93, 1.58, 7.08, repro,
2015-11-02,0.96, -0.36, 3.29, 1.92, 1.59, 7.10, repro,
2015-11-03,-0.32, 1.13, 2.68, 1.94, 1.62, 7.19, repro,
2015-11-04,1.55, -0.43, -6.77, 1.95, 1.63, 7.25, repro,
2015-11-05,0.66, 0.73, 2.41, 1.96, 1.63, 7.23, repro,
2015-11-06,1.32, 2.42, 2.08, 1.95, 1.62, 7.18, repro,
2015-11-07,1.33, 0.48, 6.07, 1.99, 1.64, 7.35, repro,
2015-11-08,0.21, 0.44, 2.48, 1.94, 1.62, 7.19, repro,
2015-11-09,0.64, -0.01, -3.68, 1.95, 1.62, 7.21, repro,
2015-11-10,1.32, 0.81, 3.81, 2.00, 1.68, 7.40, repro,
2015-11-11,1.13, 0.21, 6.94, 1.95, 1.62, 7.19, repro,
2015-11-12,2.15, 0.58, 0.74, 1.96, 1.63, 7.24, repro,
2015-11-13,-2.64, 1.82, 3.06, 1.95, 1.62, 7.18, repro,
2015-11-14,-1.58, 0.16, 8.89, 1.96, 1.63, 7.26, repro,
2015-11-15,0.95, -0.53, -2.97, 1.94, 1.61, 7.14, repro,
2015-11-16,0.89, 0.21, 0.61, 1.96, 1.63, 7.20, repro,
2015-11-17,1.39, -0.01, 2.55, 1.95, 1.61, 7.11, repro,
2015-11-18,-0.77, 1.01, 5.05, 1.95, 1.61, 7.15, repro,
2015-11-19,0.88, 0.29, 7.62, 2.00, 1.66, 7.31, repro,
2015-11-20,-0.24, -0.35, 4.24, 1.94, 1.62, 7.18, repro,
2015-11-21,-0.37, -0.14, 2.23, 1.95, 1.62, 7.19, repro,
2015-11-22,-1.05, 0.65, 3.80, 1.95, 1.62, 7.15, repro,
2015-11-23,-1.45, -0.60, 1.72, 1.96, 1.62, 7.17, repro,
2015-11-24,-1.38, -0.61, -0.97, 2.17, 1.82, 8.05, repro,
2015-11-25,-1.26, 1.00, -7.54, 3.46, 2.84, 12.50, repro,
2015-11-26,-0.15, 1.67, -7.95, 3.74, 2.89, 13.10, repro,
2015-11-27,-1.48, 0.54, -8.71, 3.18, 2.61, 11.38, repro,
2015-11-28,-2.00, 1.96, 0.14, 3.18, 2.67, 11.46, repro,
2015-11-29,-0.95, 0.75, -0.69, 3.37, 2.83, 11.96, repro,
2015-12-01,0.83, 1.52, -4.90, 2.22, 1.76, 7.92, repro,
2015-12-02,-0.57, 0.82, 6.35, 1.97, 1.62, 7.20, repro,
2015-12-03,0.29, 0.24, 4.35, 1.96, 1.61, 7.15, repro,
2015-12-04,-0.69, -0.25, -2.28, 1.96, 1.61, 7.14, repro,
2015-12-05,-0.46, -0.12, -6.77, 1.97, 1.62, 7.22, repro,
2015-12-06,-0.25, -1.16, -8.03, 1.96, 1.61, 7.15, repro,
2015-12-07,-0.27, -0.92, -1.86, 2.01, 1.62, 7.34, repro,
2015-12-08,0.03, 0.41, 5.31, 2.00, 1.63, 7.39, repro,
2015-12-09,-1.15, -0.22, 4.06, 1.99, 1.61, 7.29, repro,
2015-12-10,-0.65, 0.28, 2.59, 2.02, 1.63, 7.41, repro,
2015-12-11,-0.50, 0.42, 5.77, 2.03, 1.64, 7.42, repro,
2015-12-12,-0.33, 0.86, 0.45, 1.97, 1.62, 7.21, repro,
2015-12-13,-0.05, 0.81, 2.63, 1.98, 1.63, 7.28, repro,
2015-12-14,-0.31, 0.86, 11.81, 2.01, 1.68, 7.44, repro,
2015-12-15,-0.94, 0.54, 12.21, 1.92, 1.59, 7.04, repro,
2015-12-16,0.45, 0.20, 10.13, 1.95, 1.62, 7.19, repro,
2015-12-17,0.25, 0.56, 1.02, 2.10, 1.73, 7.81, repro,
2015-12-18,-1.28, -0.12, 6.57, 1.95, 1.62, 7.26, repro,
2015-12-19,-0.69, -1.90, 1.22, 1.90, 1.58, 7.02, repro,
2015-12-20,-2.07, -0.79, -1.47, 1.94, 1.60, 7.12, repro,
2015-12-21,-0.87, -0.36, 1.61, 1.92, 1.59, 7.08, repro,
2015-12-22,-0.34, 0.48, 9.89, 1.92, 1.60, 7.12, repro,
2015-12-23,-0.11, 1.40, 6.77, 1.95, 1.64, 7.28, repro,
2015-12-24,-1.09, 0.91, 17.30, 1.98, 1.65, 7.33, repro,
2015-12-25,0.36, 1.17, 8.67, 1.92, 1.60, 7.11, repro,
2015-12-26,0.72, -0.18, -1.57, 1.91, 1.59, 7.04, repro,
2015-12-27,1.34, 0.95, 3.59, 1.91, 1.58, 7.03, repro,
2015-12-28,0.11, -0.35, 2.15, 1.96, 1.62, 7.17, repro,
2015-12-29,-0.23, 0.90, -3.55, 1.92, 1.60, 7.12, repro,
2015-12-30,-0.81, 0.90, -3.03, 1.92, 1.59, 7.13, repro,
2015-12-31,-1.21, 0.86, 4.78, 1.91, 1.59, 7.11, repro,
2016-01-01,-1.17, 0.18, 2.51, 1.91, 1.59, 7.07, repro,
2016-01-02,-0.32, 0.52, -1.02, 1.96, 1.64, 7.23, repro,
2016-01-03,-0.39, 0.09, 0.58, 1.95, 1.63, 7.21, repro,
2016-01-04,-0.23, -0.65, -6.09, 1.92, 1.58, 7.09, repro,
2016-01-05,-1.76, -0.47, -8.58, 1.92, 1.58, 7.12, repro,
2016-01-06,-1.90, -0.31, -8.86, 1.91, 1.57, 7.05, repro,
2016-01-07,-1.38, 0.08, -7.92, 1.96, 1.60, 7.17, repro,
2016-01-08,-0.52, -0.09, -3.08, 2.02, 1.62, 7.25, repro,
2016-01-09,-0.07, 0.20, -3.88, 1.97, 1.61, 7.18, repro,
2016-01-10,-0.75, 2.39, 2.93, 1.93, 1.58, 7.13, repro,
2016-01-11,0.09, 0.13, -1.85, 1.93, 1.59, 7.13, repro,
2016-01-12,-0.39, -0.47, 1.17, 1.90, 1.57, 7.01, repro,
2016-01-13,-0.66, -0.73, 2.20, 1.91, 1.57, 7.04, repro,
2016-01-14,-1.10, 0.59, 4.96, 1.90, 1.57, 7.02, repro,
2016-01-15,-0.16, 0.41, 3.61, 1.98, 1.60, 7.29, repro,
2016-01-16,-0.53, 0.56, 9.36, 1.93, 1.58, 7.17, repro,
2016-01-17,-0.56, 0.30, 5.27, 1.90, 1.57, 7.06, repro,
2016-01-18,-3.10, -0.41, 5.83, 1.92, 1.57, 7.06, repro,
2016-01-19,-1.71, -1.91, -4.79, 1.90, 1.56, 6.98, repro,
2016-01-20,-2.20, -1.15, 2.42, 1.91, 1.57, 7.04, repro,
2016-01-21,-1.46, -1.74, -2.91, 1.91, 1.58, 7.10, repro,
2016-01-22,-1.59, -0.50, 0.86, 1.92, 1.58, 7.15, repro,
2016-01-23,-1.92, 0.40, 7.73, 1.92, 1.57, 7.06, repro,
2016-01-24,-1.98, 0.97, -2.25, 1.91, 1.57, 7.04, repro,
2016-01-25,-1.54, 0.89, -4.26, 1.96, 1.60, 7.19, repro,
2016-01-26,-0.59, 1.37, -1.80, 1.95, 1.60, 7.20, repro,
2016-01-27,-1.30, 0.85, 0.41, 1.97, 1.61, 7.28, repro,
2016-01-28,-1.48, 1.12, -0.28, 1.96, 1.60, 7.23, repro,
2016-01-29,-0.18, 0.90, 4.74, 2.00, 1.65, 7.40, repro,
2016-01-30,-2.84, 0.92, 7.97, 2.04, 1.68, 7.55, repro,
2016-01-31,-2.09, 1.57, 7.51, 1.97, 1.65, 7.37, repro,
2016-02-01,-0.77, 0.88, 5.80, 1.95, 1.59, 7.22, repro,
2016-02-02,-0.65, 0.36, 0.65, 1.95, 1.60, 7.26, repro,
2016-02-03,-0.15, 0.52, -4.43, 1.95, 1.61, 7.26, repro,
2016-02-04,-0.09, 0.35, -0.62, 1.95, 1.59, 7.18, repro,
2016-02-05,-0.57, -0.42, -3.54, 1.94, 1.59, 7.17, repro,
2016-02-06,-0.13, -0.33, -9.37, 1.94, 1.60, 7.24, repro,
2016-02-07,-1.15, -0.79, 1.27, 1.95, 1.59, 7.27, repro,
2016-02-08,-1.73, 0.79, 1.62, 1.97, 1.59, 7.28, repro,
2016-02-09,-1.11, 1.45, 1.87, 1.95, 1.61, 7.29, repro,